Weather History for Duluth Sky Harbor, MN

Change the Weather History Date:

Wednesday, March 5, 2014

  Actual Average Record
Temperature  
Mean Temperature 2 °F -  
Max Temperature 14 °F 31 °F 50 °F (1968)
Min Temperature -11 °F 13 °F -14 °F (1960)
Degree Days  
Heating Degree Days 64    
Moisture  
Dew Point -1 °F    
Average Humidity 81    
Maximum Humidity 85    
Minimum Humidity 71    
Precipitation  
Precipitation 0.00 in - - ()
Sea Level Pressure  
Sea Level Pressure 30.46 in    
Wind  
Wind Speed 3 mph (NE)    
Max Wind Speed 20 mph    
Max Gust Speed 24 mph    
Visibility 10 miles    
Events      
Averages and records for this station are not official NWS values.
T = Trace of Precipitation, MM = Missing Value Source: NWS Daily Summary

Daily Weather History Graph

Daily Weather History Graph

Search for Another Location

Airport:

Trip Planner

Search our weather history database for the weather conditions in past years. The results will help you decide how hot, cold, wet, or windy it might be!

Date:

Astronomy

Mar. 05, 2014 Rise Set
Actual Time 6:40 AM CST 5:59 PM CST
Civil Twilight 6:09 AM CST 6:30 PM CST
Nautical Twilight 5:34 AM CST 7:05 PM CST
Astronomical Twilight 4:59 AM CST 7:40 PM CST
Moon 8:47 AM CST (3/5) 11:28 PM CST (3/5)
Length of Visible Light 12h 20m
Length of Day
11h 19m
Waxing Crescent, 23% of the Moon is Illuminated
Mar 5
Waxing Crescent
Mar 8
First Quarter
Mar 16
Full
Mar 23
Last Quarter
Mar 30
New

Hourly Weather History & Observations

Time (CST) Temp. Windchill Dew Point Humidity Pressure Visibility Wind Dir Wind Speed Gust Speed Precip Events Conditions
12:14 AM -7.6 °F - -13.0 °F 77% 30.39 in 10.0 mi Calm Calm - N/A   Clear
12:33 AM -4.0 °F - -7.6 °F 85% 30.38 in 10.0 mi Calm Calm - N/A   Clear
12:53 AM -5.8 °F - -9.4 °F 84% 30.39 in 10.0 mi Calm Calm - N/A   Clear
1:14 AM -2.2 °F - -7.6 °F 78% 30.39 in 10.0 mi Calm Calm - N/A   Clear
1:33 AM -9.4 °F - -14.8 °F 77% 30.41 in 10.0 mi Calm Calm - N/A   Clear
1:53 AM -5.8 °F - -9.4 °F 84% 30.42 in 10.0 mi Calm Calm - N/A   Clear
2:13 AM -5.8 °F - -9.4 °F 84% 30.42 in 10.0 mi Calm Calm - N/A   Clear
2:33 AM -7.6 °F - -11.2 °F 84% 30.42 in 10.0 mi Calm Calm - N/A   Clear
2:53 AM -11.2 °F - -16.6 °F 77% 30.43 in 10.0 mi Calm Calm - N/A   Clear
3:13 AM -7.6 °F - -11.2 °F 84% 30.43 in 10.0 mi Calm Calm - N/A   Clear
3:34 AM -2.2 °F - -7.6 °F 78% 30.43 in 10.0 mi Calm Calm - N/A   Clear
3:53 AM -5.8 °F - -9.4 °F 84% 30.45 in 10.0 mi Calm Calm - N/A   Clear
4:13 AM -5.8 °F - -11.2 °F 77% 30.46 in 10.0 mi Calm Calm - N/A   Clear
4:33 AM -2.2 °F - -7.6 °F 78% 30.45 in 10.0 mi Calm Calm - N/A   Clear
4:53 AM -5.8 °F - -9.4 °F 84% 30.47 in 10.0 mi Calm Calm - N/A   Clear
5:13 AM -5.8 °F - -9.4 °F 84% 30.48 in 10.0 mi Calm Calm - N/A   Clear
5:34 AM -9.4 °F - -14.8 °F 77% 30.49 in 10.0 mi Calm Calm - N/A   Clear
5:54 AM -5.8 °F - -9.4 °F 84% 30.49 in 10.0 mi Calm Calm - N/A   Clear
6:13 AM -7.6 °F - -13.0 °F 77% 30.50 in 10.0 mi Calm Calm - N/A   Clear
6:33 AM -7.6 °F - -11.2 °F 84% 30.51 in 10.0 mi Calm Calm - N/A   Clear
6:53 AM -9.4 °F - -16.6 °F 71% 30.51 in 10.0 mi Calm Calm - N/A   Clear
7:13 AM -2.2 °F - -7.6 °F 78% 30.51 in 10.0 mi Calm Calm - N/A   Clear
7:33 AM -5.8 °F - -11.2 °F 77% 30.52 in 10.0 mi Calm Calm - N/A   Clear
7:53 AM -5.8 °F - -11.2 °F 77% 30.53 in 10.0 mi Calm Calm - N/A   Clear
8:13 AM -5.8 °F - -9.4 °F 84% 30.54 in 10.0 mi Calm Calm - N/A   Clear
8:33 AM -2.2 °F - -5.8 °F 85% 30.54 in 10.0 mi Calm Calm - N/A   Scattered Clouds
8:53 AM -0.4 °F - -4.0 °F 85% 30.55 in 10.0 mi Calm Calm - N/A   Scattered Clouds
9:14 AM -0.4 °F - -4.0 °F 85% 30.54 in 10.0 mi Calm Calm - N/A   Clear
9:34 AM 3.2 °F - -0.4 °F 85% 30.55 in 10.0 mi Calm Calm - N/A   Clear
9:54 AM 6.8 °F - 3.2 °F 85% 30.55 in 10.0 mi Calm Calm - N/A   Clear
10:14 AM 8.6 °F - 5.0 °F 85% 30.55 in 10.0 mi Calm Calm - N/A   Clear
10:32 AM 10.4 °F - 6.8 °F 85% 30.55 in 10.0 mi Calm Calm - N/A   Clear
10:53 AM 10.4 °F - 6.8 °F 85% 30.55 in 10.0 mi Calm Calm - N/A   Clear
11:13 AM 10.4 °F -2.4 °F 6.8 °F 85% 30.55 in 10.0 mi NE 9.2 mph - N/A   Clear
11:34 AM 12.2 °F -1.0 °F 8.6 °F 85% 30.53 in 10.0 mi NE 10.4 mph 16.1 mph N/A   Clear
11:53 AM 12.2 °F -3.7 °F 8.6 °F 85% 30.53 in 10.0 mi ENE 15.0 mph - N/A   Clear
11:54 AM 12.2 °F -3.7 °F 8.6 °F 85% 30.53 in 10.0 mi NE 15.0 mph - N/A   Clear
12:21 PM 12.2 °F -4.3 °F 8.6 °F 85% 30.52 in 10.0 mi NE 16.1 mph - N/A   Clear
12:41 PM 12.2 °F -2.5 °F 8.6 °F 85% 30.52 in 10.0 mi NE 12.7 mph - N/A   Clear
1:01 PM 12.2 °F -3.7 °F 8.6 °F 85% 30.51 in 7.0 mi NE 15.0 mph - N/A   Clear
1:21 PM 14.0 °F -3.0 °F 8.6 °F 79% 30.50 in 7.0 mi NE 18.4 mph 24.2 mph N/A   Clear
1:41 PM 14.0 °F -2.0 °F 8.6 °F 79% 30.50 in 7.0 mi NE 16.1 mph - N/A   Clear
2:11 PM 14.0 °F -2.5 °F 8.6 °F 79% 30.49 in 7.0 mi NE 17.3 mph 21.9 mph N/A   Clear
2:14 PM 14.0 °F -2.5 °F 8.6 °F 79% 30.49 in 10.0 mi NE 17.3 mph 21.9 mph N/A   Clear
2:33 PM 14.0 °F -3.4 °F 6.8 °F 73% 30.49 in 7.0 mi ENE 19.6 mph 24.2 mph N/A   Clear
2:53 PM 14.0 °F -3.0 °F 6.8 °F 73% 30.48 in 10.0 mi ENE 18.4 mph - N/A   Clear
3:13 PM 12.2 °F -5.8 °F 6.8 °F 79% 30.48 in 10.0 mi ENE 19.6 mph - N/A   Clear
3:34 PM 12.2 °F -5.3 °F 6.8 °F 79% 30.48 in 10.0 mi NE 18.4 mph - N/A   Clear
3:53 PM 12.2 °F -4.8 °F 6.8 °F 79% 30.47 in 10.0 mi ENE 17.3 mph - N/A   Clear
4:13 PM 12.2 °F -4.3 °F 6.8 °F 79% 30.48 in 10.0 mi ENE 16.1 mph - N/A   Clear
4:33 PM 12.2 °F -4.3 °F 6.8 °F 79% 30.47 in 10.0 mi ENE 16.1 mph - N/A   Scattered Clouds
4:54 PM 12.2 °F -5.3 °F 6.8 °F 79% 30.46 in 10.0 mi NE 18.4 mph - N/A   Mostly Cloudy
5:13 PM 12.2 °F -5.3 °F 5.0 °F 73% 30.44 in 10.0 mi ENE 18.4 mph - N/A   Mostly Cloudy
5:33 PM 10.4 °F -7.7 °F 5.0 °F 79% 30.44 in 10.0 mi ENE 18.4 mph - N/A   Scattered Clouds
5:53 PM 10.4 °F -5.4 °F 5.0 °F 79% 30.43 in 10.0 mi ENE 13.8 mph - N/A   Clear
6:14 PM 10.4 °F -4.1 °F 5.0 °F 79% 30.43 in 10.0 mi ENE 11.5 mph - N/A   Clear
6:33 PM 10.4 °F -4.1 °F 5.0 °F 79% 30.43 in 10.0 mi NE 11.5 mph 16.1 mph N/A   Clear
6:53 PM 10.4 °F 0.8 °F 5.0 °F 79% 30.43 in 10.0 mi NE 5.8 mph - N/A   Clear
7:14 PM 8.6 °F - 5.0 °F 85% 30.42 in 10.0 mi Calm Calm - N/A   Clear
7:33 PM 10.4 °F -4.1 °F 5.0 °F 79% 30.41 in 10.0 mi NE 11.5 mph - N/A   Clear
7:54 PM 8.6 °F - 3.2 °F 79% 30.40 in 10.0 mi Calm Calm - N/A   Clear
8:13 PM 6.8 °F - 1.4 °F 79% 30.39 in 10.0 mi Calm Calm - N/A   Clear
8:34 PM 6.8 °F - 1.4 °F 79% 30.38 in 10.0 mi Calm Calm - N/A   Clear
8:53 PM 3.2 °F - -2.2 °F 78% 30.38 in 10.0 mi Calm Calm - N/A   Clear
9:13 PM 3.2 °F - -0.4 °F 85% 30.38 in 10.0 mi Calm Calm - N/A   Clear
9:34 PM 5.0 °F - -0.4 °F 78% 30.38 in 10.0 mi Calm Calm - N/A   Clear
9:53 PM 3.2 °F - -2.2 °F 78% 30.38 in 10.0 mi Calm Calm - N/A   Clear
10:14 PM 6.8 °F - 1.4 °F 79% 30.37 in 10.0 mi Calm Calm - N/A   Clear
10:33 PM 5.0 °F - 1.4 °F 85% 30.37 in 10.0 mi Calm Calm - N/A   Clear
10:53 PM 6.8 °F - 1.4 °F 79% 30.36 in 10.0 mi Calm Calm - N/A   Clear
11:13 PM 1.4 °F - -2.2 °F 85% 30.36 in 10.0 mi Calm Calm - N/A   Clear
11:34 PM -0.4 °F - -4.0 °F 85% 30.35 in 10.0 mi Calm Calm - N/A   Clear
11:53 PM 1.4 °F - -2.2 °F 85% 30.33 in 10.0 mi Calm Calm - N/A   Clear